Regional Weather Roundup
Issued by NWS

Home | Current Version | Previous Version | Graphics & Text | Print | Product List | Glossary On
Versions: 1 2 3 4 5 6 7 8 9 10 11 12 13 14 15 16 17 18 19 20 21 22 23 24 25 26 27 28 29 30 31 32 33 34 35 36 37 38 39 40 41 42 43 44 45 46 47 48 49 50
000
ASUS43 KFSD 280810
RWRSD

WEATHER ROUNDUP FOR SOUTH DAKOTA
NATIONAL WEATHER SERVICE SIOUX FALLS SD
300 AM CDT THU AUG 28 2014

NOTE: "FAIR" INDICATES FEW OR NO CLOUDS BELOW 12,000 FEET WITH NO
SIGNIFICANT WEATHER AND/OR OBSTRUCTIONS TO VISIBILITY.


SDZ001>005-009-010-012>017-280900-
NORTHWEST AND NORTH CENTRAL SOUTH DAKOTA

CITY           SKY/WX    TMP DP  RH WIND       PRES   REMARKS
BUFFALO          N/A     58  57  97 W5        29.95F
FAITH            N/A     63  63 100 NE6       29.99F
MOBRIDGE       CLOUDY    66  65  96 SE7       29.95F
$$

SDZ012>016-024>037-041>051-057-063-072>074-280900-
SOUTHWEST AND SOUTH CENTRAL SOUTH DAKOTA

CITY           SKY/WX    TMP DP  RH WIND       PRES   REMARKS
RAPID CTY ARPT CLOUDY    62  60  93 N3        30.02S
PIERRE         LGT RAIN  66  66 100 E5        29.96F
CUSTER         CLOUDY    54  52  93 NE5       30.12S
ELLSWORTH AFB  CLOUDY    63  61  92 N3        30.01F
PHILIP         RAIN      66  64  93 NE5       29.97F
PINE RIDGE     CLOUDY    63  63 100 CALM      30.00S FOG
WINNER         PTSUNNY   68  66  93 E10       29.97S
$$

SDZ004>011-016>023-039-040-280900-
NORTHEAST SOUTH DAKOTA

CITY           SKY/WX    TMP DP  RH WIND       PRES   REMARKS
ABERDEEN       CLOUDY    64  63  96 E5        30.01F
WATERTOWN      CLOUDY    66  63  90 SE9       30.03F
SISSETON         N/A     62  60  93 S7        30.02F
$$

SDZ017-020-022-023-036>040-048>070-280900-
SOUTHEAST SOUTH DAKOTA

CITY           SKY/WX    TMP DP  RH WIND       PRES   REMARKS
SIOUX FALLS    LGT RAIN  68  65  90 SE10      30.03F
HURON          CLOUDY    69  66  90 SE9       29.99F
CHAMBERLAIN    RAIN      66  66  99 SE6       29.98F
MITCHELL       LGT RAIN  69  67  93 SE10      29.99F
YANKTON        CLOUDY    68  66  94 E7        29.99F
$$

ABBREVIATIONS USED IN REMARKS
   TC - TEMPERATURE IN CELSIUS
  WCI - WIND CHILL INDEX
   HX - HEAT INDEX
  VSB - VISIBILITY




USA.gov is the U.S. government's official web portal to all federal, state and local government web resources and services.